This is the latest recevied weather packets stored in our database for station/object KC5EZZ-2. If no packets are shown the sender has not sent any weather packets the latest 10 day(s).
| Time | Temp. | Humidity | Pressure | Rain* | Wind** | Luminosity | Snow |
|---|---|---|---|---|---|---|---|
| 1777402621 | 32.22° C | - | - | 0 mm | 2.68 m/s, 197° | - | - |
| 1777402322 | 31.67° C | - | - | 0 mm | 2.68 m/s, 240° | - | - |
| 1777402022 | 32.22° C | - | - | 0 mm | 3.13 m/s, 233° | - | - |
| 1777401720 | 32.22° C | - | - | 0 mm | 3.13 m/s, 253° | - | - |
| 1777401420 | 31.67° C | - | - | 0 mm | 3.13 m/s, 170° | - | - |
| 1777401121 | 31.67° C | - | - | 0 mm | 3.13 m/s, 217° | - | - |
| 1777400818 | 31.67° C | - | - | 0 mm | 3.58 m/s, 190° | - | - |
| 1777400519 | 31.11° C | - | - | 0 mm | 4.02 m/s, 207° | - | - |
| 1777400219 | 30.56° C | - | - | 0 mm | 4.02 m/s, 214° | - | - |
| 1777399916 | 30.56° C | - | - | 0 mm | 4.02 m/s, 187° | - | - |
| 1777399617 | 30° C | - | - | 0 mm | 3.58 m/s, 190° | - | - |
| 1777399317 | 29.44° C | - | - | 0 mm | 4.47 m/s, 217° | - | - |
| 1777399015 | 29.44° C | - | - | 0 mm | 3.58 m/s, 210° | - | - |
| 1777398715 | 30° C | - | - | 0 mm | 4.47 m/s, 211° | - | - |
| 1777398415 | 29.44° C | - | - | 0 mm | 4.02 m/s, 203° | - | - |
| 1777398113 | 28.89° C | - | - | 0 mm | 4.47 m/s, 205° | - | - |
| 1777397813 | 29.44° C | - | - | 0 mm | 4.92 m/s, 218° | - | - |
| 1777397513 | 29.44° C | - | - | 0 mm | 3.58 m/s, 210° | - | - |
| 1777397211 | 28.89° C | - | - | 0 mm | 3.58 m/s, 205° | - | - |
| 1777396911 | 28.89° C | - | - | 0 mm | 2.68 m/s, 225° | - | - |
| 1777396657 | 28.33° C | - | - | 0 mm | 2.68 m/s, 228° | - | - |
| 1777396612 | 28.33° C | - | - | 0 mm | 2.68 m/s, 228° | - | - |
| 1777396309 | 28.33° C | - | - | 0 mm | 2.24 m/s, 232° | - | - |
| 1777396009 | 27.78° C | - | - | 0 mm | 4.47 m/s, 233° | - | - |
| 1777395710 | 28.33° C | - | - | 0 mm | 2.68 m/s, 253° | - | - |
* Rain latest hour (hover to see other rain measurements)
** Current wind speed in m/s (hover to see current wind gust speed)